User: anonymous
Location: Raleigh
(35.7720°N, 78.6390°W)
Time: 13:11:35
(UTC-04:00)
Language:

JAS-2 - Orbit

View from above orbital plane
View from above orbital plane
View from above satellite
View from above satellite

Ground track
Ground track

The orbit data is extracted from the following two-line orbital elements,

1 24278U 96046B   14210.07205248  .00000022  00000-0  58025-4 0  4313
2 24278 098.5129 218.1524 0350584 188.7952 208.1775 13.53026469886334
Epoch (UTC): 29 July 2014 01:43:45
Eccentricity: 0.0350584
inclination: 98.5129°
perigee height: 800 km
apogee height: 1322 km
right ascension of ascending node: 218.1524°
argument of perigee: 188.7952°
revolutions per day: 13.53026469
mean anomaly at epoch: 208.1775°
orbit number at epoch: 88633

The dashed part of the orbit path shows where the satellite is in the earth's shadow,  

DLR